Flag for Germany Weather past 2 weeks in Emmendingen, Baden-Württemberg, Germany

Now
53 °F

Passing clouds.


Feels Like: 53 °F
Forecast: 47 / 63 °F
Wind: 1 mph from Southeast

Location: Lahr

Current Time: Sep 5, 2015 at 3:41:58 AM

Latest Report: Sep 5, 2015 at 3:00 AM


Visibility: 44 mi

Pressure: 30.05 "Hg

Humidity: 79%

Dew point: 46 °F

Location of EmmendingenLocation

Historic Weather in Emmendingen — Graph

°F

Emmendingen temperature yesterday

Maximum temperature yesterday: 69 °F (at 4:00 PM)
Minimum temperature yesterday: 54 °F (at 6:00 AM)
Average temperature yesterday: 61 °F

Past Weeks' High & Low Weather Summary

 TemperatureHumidityPressure
High95 °F (Aug 30, 5:00 PM)100% (Aug 29, 5:00 AM)30.26 "Hg (Aug 29, 5:00 AM)
Low51 °F (Aug 21, 7:00 AM)24% (Aug 31, 2:00 PM)29.69 "Hg (Aug 24, 1:00 PM)
Average69 °F65%29.99 "Hg
* Reported Aug 21 2:00 AM — Sep 5 2:00 AM, Emmendingen, Weather by CustomWeather, © 2015

Note: Actual official high and low records may vary slightly from our data, if they occured in-between our weather recording intervals... More about our weather records

Advertising

Emmendingen weather history for previous 24 hours

 ConditionsComfort  
Time TempWeatherWind HumidityBarometerVisibility
2:00 AM
Sat, Sep 5
54 °FOvercast.1 mph78%30.05 "Hg43 mi
1:00 AM56 °FOvercast.2 mph69%30.05 "Hg43 mi
11:00 PM
Fri, Sep 4
59 °FOvercast.1 mph59%30.03 "Hg43 mi
10:00 PM60 °FOvercast.1 mph57%30.02 "Hg43 mi
9:00 PM58 °FPassing clouds.1 mph61%30.01 "Hg47 mi
8:00 PM60 °FPassing clouds.3 mph57%29.99 "Hg47 mi
7:00 PM63 °FPassing clouds.3 mph48%29.99 "Hg47 mi
6:00 PM67 °FPassing clouds.7 mph41%29.98 "Hg47 mi
5:00 PM69 °FScattered clouds.5 mph38%29.98 "Hg47 mi
4:00 PM69 °FPassing clouds.5 mph39%29.99 "Hg43 mi
3:00 PM68 °FPartly sunny.5 mph41%30.00 "Hg43 mi
2:00 PM69 °FPartly sunny.5 mph43%30.02 "Hg43 mi
1:00 PM69 °FScattered clouds.5 mph36%30.02 "Hg43 mi
12:00 PM68 °FPassing clouds.2 mph40%30.03 "Hg43 mi
11:00 AM64 °FScattered clouds.2 mph54%30.04 "Hg43 mi
10:00 AM60 °FPartly sunny.3 mph66%30.04 "Hg40 mi
9:00 AM57 °FPassing clouds.2 mph77%30.03 "Hg34 mi
8:00 AM55 °FOvercast.1 mph85%30.03 "Hg31 mi
7:00 AM55 °FPartly sunny.2 mph85%30.02 "Hg34 mi
6:00 AM54 °FPassing clouds.1 mph88%30.02 "Hg19 mi
5:00 AM55 °FOvercast.2 mph87%30.02 "Hg28 mi
4:00 AM56 °FOvercast.1 mph89%30.02 "Hg28 mi
3:00 AM57 °FOvercast.1 mph83%30.02 "Hg34 mi
Weather by CustomWeather, © 2015

See weather overviewHow to use our weather pages